Home > Time Zones > World Clock > Weather > Oman > Seeb > Past weeks

Flag for Oman Weather past 2 weeks in Seeb, Oman

Now
111 °F

Clear.


Feels Like: 118 °F
Forecast: 94 / 100 °F
Wind: 18 mph from Southwest

Location: International Airport

Current Time: Jul 5, 2015 at 11:55:56 AM

Latest Report: Jul 5, 2015 at 10:50 AM


Visibility: 4 mi

Pressure: 29.53 "Hg

Humidity: 24%

Dew point: 66 °F

Location of SeebLocation

Historic Weather in Seeb — Graph

°F

Seeb temperature yesterday

Maximum temperature yesterday: 109 °F (at 5:50 PM)
Minimum temperature yesterday: 97 °F (at 5:50 AM)
Average temperature yesterday: 102 °F

Past Weeks' High & Low Weather Summary

 TemperatureHumidityPressure
High111 °F (Jun 25, 11:50 AM)84% (Jun 20, 8:50 PM)29.65 "Hg (Jun 20, 8:50 PM)
Low86 °F (Jun 20, 8:50 PM)5% (Jun 26, 4:50 AM)29.30 "Hg (Jun 21, 5:50 PM)
Average99 °F38%29.49 "Hg
* Reported Jun 20 9:50 AM — Jul 5 9:50 AM, Seeb, Weather by CustomWeather, © 2015

Note: Actual official high and low records may vary slightly from our data, if they occured in-between our weather recording intervals... More about our weather records

Advertising

Seeb weather history for previous 24 hours

 ConditionsComfort  
Time TempWeatherWind HumidityBarometerVisibility
9:50 AM
Sun, Jul 5
108 °FClear.20 mph26%29.53 "Hg4 mi
8:50 AM106 °FClear.22 mph28%29.56 "Hg4 mi
7:50 AM102 °FClear.18 mph31%29.56 "Hg4 mi
6:50 AM100 °FSunny.21 mph33%29.53 "Hg10 mi
5:50 AM100 °FSunny.21 mph31%29.53 "Hg10 mi
4:50 AM100 °FClear.21 mph33%29.50 "Hg10 mi
3:50 AM102 °FClear.22 mph29%29.50 "Hg10 mi
2:50 AM102 °FClear.21 mph31%29.50 "Hg10 mi
1:50 AM104 °FClear.22 mph26%29.53 "Hg10 mi
12:50 AM104 °FClear.20 mph26%29.53 "Hg10 mi
11:50 PM
Sat, Jul 4
106 °FClear.16 mph22%29.56 "Hg10 mi
10:50 PM104 °FClear.17 mph23%29.56 "Hg10 mi
9:50 PM104 °FClear.18 mph24%29.56 "Hg10 mi
8:50 PM106 °FClear.14 mph23%29.56 "Hg10 mi
7:50 PM106 °FClear.21 mph23%29.53 "Hg6 mi
6:50 PM100 °FScattered clouds.2 mph47%29.53 "Hg4 mi
5:50 PM109 °FScattered clouds.5 mph25%29.53 "Hg4 mi
4:50 PM104 °FPassing clouds.15 mph31%29.53 "Hg4 mi
3:50 PM100 °FPassing clouds.14 mph47%29.53 "Hg4 mi
2:50 PM102 °FPassing clouds.13 mph42%29.53 "Hg4 mi
1:50 PM102 °FPassing clouds.13 mph45%29.56 "Hg4 mi
12:50 PM100 °FPassing clouds.13 mph47%29.56 "Hg4 mi
11:50 AM100 °FPassing clouds.12 mph47%29.59 "Hg4 mi
Weather by CustomWeather, © 2015

See weather overviewHow to use our weather pages